Theta_e
308 308 308 308 308 308 308 308 308 306 306 306 307 307 309 309 309 308 308 309 309 310 309 313 313 314 315 315 315 317 310 311 312 312 312 312 311 312 313 313 315 316 315 314 314
306 306 306 306 306 306 307 307 308 308 308 308 306 306 309 309 311 309 308 308 308 309 310 312 311 313 314 315 315 312 310 314 312 312 312 312 312 312 312 314 315 314 315 316 314
306 306 307 310 314 314 308 307 307 308 308 308 307 306 308 309 311 310 308 308 308 309 310 312 311 312 312 312 312 312 311 313 312 313 312 312 311 312 312 313 311 310 310 312 316
310 313 318 320 319 319 316 312 311 308 308 308 307 307 309 311 309 310 308 308 308 309 310 311 310 311 309 310 311 311 311 311 312 312 312 313 314 311 309 309 308 308 307 309 312
314 317 320 321 317 313 314 315 315 310 308 308 308 307 309 313 312 310 308 308 308 309 309 310 310 311 311 312 311 310 311 311 312 313 313 312 310 311 307 307 307 306 306 306 308
319 321 320 321 313 313 313 312 310 309 308 308 307 308 311 311 310 309 308 309 309 308 309 309 310 311 313 312 310 310 310 310 312 311 312 310 310 310 306 307 307 305 304 304 306
318 322 322 322 315 318 316 312 310 309 309 308 308 309 312 311 311 308 308 308 309 308 308 308 309 310 311 310 311 310 311 310 311 311 311 311 310 308 306 305 306 304 305 305 308
323 323 324 323 318 319 316 313 309 310 308 308 308 313 311 309 309 308 308 308 308 309 309 308 309 312 312 312 308 306 306 310 310 311 309 311 310 305 306 305 305 303 303 310 312
327 327 327 324 319 319 316 314 311 310 309 310 311 313 309 310 309 308 308 309 309 310 312 311 311 311 308 304 304 304 307 308 310 310 309 306 307 305 305 305 304 302 303 305 308
326 326 326 325 320 319 316 314 312 311 310 311 310 311 309 308 308 309 308 311 311 311 312 312 310 303 302 303 305 306 306 306 308 308 306 306 305 304 304 304 304 302 302 303 305
326 325 325 324 320 320 316 316 312 312 310 309 309 310 309 307 310 311 308 310 311 311 309 309 304 303 305 305 305 305 305 305 308 307 304 305 305 304 303 303 304 302 301 301 302
326 325 324 324 322 321 315 312 307 308 310 310 311 310 308 308 310 310 307 310 310 309 308 305 305 306 306 306 306 307 308 307 307 307 304 305 305 304 303 302 301 300 299 298 303
326 325 325 323 321 321 313 309 307 308 313 311 310 310 308 308 309 310 307 308 310 309 307 307 307 307 307 305 305 306 306 306 307 308 304 304 305 305 303 301 299 298 298 298 297
326 326 325 323 321 318 312 310 308 312 307 308 310 311 309 309 311 309 308 309 310 309 307 307 306 307 306 305 306 307 306 307 308 310 310 305 308 304 303 300 298 297 296 296 297
325 324 326 322 320 315 310 311 309 316 309 309 308 309 309 309 309 308 308 309 309 307 306 307 305 305 305 305 305 306 306 307 308 308 308 308 306 304 302 302 298 296 294 294 296
325 324 325 323 318 313 312 313 313 312 308 308 309 308 308 308 309 308 308 309 308 307 307 306 305 306 304 304 304 306 307 307 307 307 309 309 306 305 303 302 298 295 294 293 293
324 324 325 323 317 313 315 313 314 313 308 310 308 308 307 307 306 307 306 305 305 304 304 304 307 305 305 304 305 306 308 311 312 312 311 306 307 305 301 299 297 295 293 293 292
325 321 325 322 318 318 318 313 315 310 309 308 308 307 308 305 306 306 305 305 305 304 303 304 307 305 304 305 305 306 306 308 310 311 306 305 308 306 300 297 296 294 293 293 292
321 319 321 319 318 321 316 313 315 308 308 307 307 305 305 307 305 303 304 306 306 304 305 303 305 304 304 304 305 305 305 304 306 306 305 305 304 303 299 297 296 294 293 292 291
317 318 322 319 321 320 312 315 309 307 307 307 307 306 306 304 304 303 303 306 307 305 304 304 303 304 304 303 304 306 304 306 305 309 310 307 306 307 300 299 296 294 293 291 291
318 320 319 319 319 315 313 313 307 307 307 307 307 306 305 305 304 304 304 305 307 306 305 304 302 303 303 304 304 304 305 304 304 304 307 306 307 303 302 300 297 294 293 292 291
319 318 319 318 318 311 313 308 307 307 307 306 306 305 306 305 304 305 304 305 306 305 304 303 300 301 303 303 302 303 305 303 306 307 303 302 305 302 300 299 296 293 292 292 291
317 318 318 318 318 314 311 307 308 307 306 307 307 306 306 306 305 303 304 306 306 304 303 303 301 303 305 305 304 305 305 305 303 303 304 305 306 299 298 296 295 293 291 291 290
319 314 317 312 309 308 310 312 310 306 306 306 306 306 306 305 304 304 305 305 305 304 304 303 300 302 304 305 305 304 304 304 304 304 305 304 303 299 297 296 293 292 291 290 289
318 316 313 313 312 306 306 306 307 308 306 306 307 306 307 305 304 303 303 303 305 304 303 301 301 300 301 301 303 304 305 306 306 305 305 306 303 301 298 295 292 292 290 289 289
317 316 312 310 308 306 307 308 307 307 307 307 308 308 305 305 305 306 303 303 302 302 302 301 301 303 302 303 304 305 306 306 307 307 306 305 305 296 297 293 292 290 290 289 288
316 315 314 314 307 306 307 308 309 308 311 309 308 307 308 308 306 304 304 303 302 301 301 302 301 304 305 305 304 307 306 306 307 305 305 307 303 293 293 292 290 290 289 289 288
Wind_Speed
16 17 17 17 17 17 17 16 14 13 12 11 10 9 7 7 5 11 12 12 12 12 10 7 7 10 7 9 9 4 5 3 2 4 5 11 8 12 9 13 15 23 18 24 22
17 18 18 19 19 18 17 16 15 14 14 13 11 8 5 5 5 11 13 13 12 10 10 11 14 13 7 5 5 6 4 1 1 1 1 5 9 9 7 23 18 32 22 22 22
18 19 20 20 21 20 18 17 16 16 14 14 10 5 2 3 3 6 12 12 12 9 11 10 13 6 8 6 6 2 3 2 2 1 2 4 24 16 12 7 16 23 33 32 28
18 20 22 24 24 21 19 17 17 16 13 10 6 1 2 3 2 4 11 11 11 8 8 9 13 5 4 3 7 4 3 1 1 4 4 5 4 9 17 8 19 26 27 31 29
19 21 22 25 22 21 20 19 16 13 10 8 4 2 5 4 4 5 10 9 11 6 9 11 12 6 3 5 5 3 2 3 3 15 15 16 16 5 22 30 28 32 33 34 29
20 21 22 26 21 23 23 18 14 11 9 7 4 5 5 3 4 7 11 9 11 7 6 8 6 6 2 3 2 1 7 2 1 7 4 9 8 4 23 36 38 36 35 32 26
21 22 22 25 19 23 22 18 13 11 8 5 3 5 8 5 4 8 9 11 9 7 5 5 5 5 4 3 8 2 3 4 3 3 5 1 7 8 23 25 27 28 31 31 18
21 22 23 23 19 22 22 15 7 14 9 7 6 5 5 4 5 9 8 10 7 7 6 5 5 3 4 6 4 5 4 3 3 1 8 6 1 9 28 26 27 33 38 35 16
23 23 23 23 19 22 21 14 7 11 7 7 7 5 3 4 9 6 10 9 5 4 4 4 4 5 7 4 5 6 1 2 4 6 1 7 4 11 24 24 27 32 36 37 32
25 25 25 23 19 23 21 13 5 10 6 3 7 5 5 6 6 5 9 7 3 5 2 3 4 4 4 5 1 3 3 4 4 1 9 10 3 6 18 22 25 31 34 36 32
24 24 24 25 18 25 22 16 9 2 13 6 4 2 3 9 2 5 11 7 3 2 2 3 5 1 3 3 5 4 3 4 3 6 6 4 2 5 13 23 27 30 33 35 36
23 23 23 26 18 26 23 23 10 2 1 6 5 3 5 10 3 6 11 3 2 2 2 6 1 3 3 2 1 1 2 2 5 6 6 3 1 2 7 15 18 23 31 35 38
23 23 23 25 20 27 23 24 14 2 1 3 6 5 6 9 4 8 11 5 2 2 2 4 2 1 2 3 5 2 2 2 4 5 5 7 3 2 4 16 20 24 23 30 31
23 23 24 25 16 23 20 24 11 3 4 7 5 3 6 7 1 6 8 4 3 2 2 2 1 1 2 2 3 2 5 2 2 1 2 5 4 3 2 7 14 22 24 25 28
23 23 22 24 21 18 19 21 6 2 5 5 4 5 12 2 6 3 6 2 1 3 3 4 2 2 1 1 3 6 5 4 3 2 2 3 3 3 2 4 6 15 19 20 23
22 24 18 22 18 18 21 17 2 5 2 5 5 8 7 4 4 5 2 3 2 2 1 4 1 2 2 3 4 6 1 3 3 2 1 4 4 3 2 3 2 8 15 19 21
19 21 18 20 15 17 23 6 5 6 3 7 4 5 4 4 6 4 4 5 3 6 5 6 2 1 1 4 2 7 4 2 3 2 4 1 3 3 4 3 4 4 11 15 19
19 19 16 14 12 16 20 4 7 1 2 3 4 6 3 6 3 5 3 4 4 3 1 2 7 3 3 1 3 3 2 3 3 2 3 2 4 3 4 9 7 9 9 13 18
19 15 14 8 8 18 8 5 2 1 2 6 6 5 5 3 3 7 4 1 0 2 3 5 5 3 2 2 4 1 2 1 1 1 1 1 2 1 4 4 5 5 9 12 15
15 13 4 6 11 14 4 1 0 1 3 3 3 3 3 5 7 7 3 1 1 2 2 0 5 2 3 2 2 2 3 1 2 1 3 2 3 4 11 8 5 5 7 9 10
12 6 2 7 14 3 3 3 0 1 2 1 1 3 2 3 2 4 4 2 1 1 2 1 2 6 3 0 1 3 1 1 2 3 2 3 4 3 12 9 8 8 5 6 9
5 4 5 13 2 2 1 2 1 0 0 1 2 4 3 2 4 3 3 2 2 1 2 0 3 4 7 2 2 1 2 2 2 3 2 2 4 2 8 14 17 13 9 4 5
3 4 4 4 2 2 4 2 1 1 2 2 2 4 1 2 3 4 3 2 1 1 2 1 1 4 8 3 0 3 2 3 2 2 5 2 4 2 11 15 16 17 11 7 4
2 3 3 3 2 2 2 2 1 1 3 2 2 1 2 2 4 5 3 2 2 4 5 2 3 7 7 8 3 5 8 5 6 4 5 8 3 6 9 10 16 17 14 9 5
3 2 2 2 1 1 2 1 0 3 2 2 1 3 3 3 4 5 3 3 4 3 3 3 5 5 8 8 6 13 16 12 13 16 12 17 9 7 17 15 21 19 14 10 6
3 2 2 3 3 1 3 3 4 3 3 3 4 2 1 4 5 13 7 2 7 1 3 2 4 2 5 9 11 16 19 18 16 14 14 17 18 2 17 22 19 19 15 10 6
9 7 2 4 1 2 4 5 3 3 5 5 8 2 5 10 10 17 17 17 14 5 6 4 3 2 6 3 7 13 10 8 4 3 4 8 5 14 12 16 16 16 11 7 3
Wind_Direction
28 21 16 11 7 2 359 357 357 355 352 349 347 350 359 17 67 38 31 19 8 8 17 41 51 36 45 37 33 42 59 55 6 35 309 359 8 3 9 26 17 354 354 320 320
22 18 12 8 4 359 355 352 348 344 342 339 337 335 351 31 92 39 25 15 5 4 18 24 27 35 52 36 38 63 97 167 102 164 315 339 19 353 21 37 358 341 326 329 311
23 19 15 10 3 360 357 352 346 340 336 330 329 329 358 41 121 24 16 7 5 8 19 26 15 35 43 87 21 81 131 182 197 124 57 35 71 64 36 25 351 323 329 323 315
26 21 14 6 359 358 355 350 346 343 339 341 339 13 104 74 115 10 6 360 5 5 12 29 26 38 50 32 1 93 57 322 313 359 101 39 88 88 56 348 329 326 327 317 303
22 17 11 4 6 4 357 349 347 349 348 345 352 104 123 93 83 5 357 360 358 8 21 26 36 30 24 336 18 72 307 341 32 104 98 80 46 109 14 352 342 339 330 323 301
20 14 10 7 9 8 4 0 1 2 10 24 61 122 115 86 57 4 358 1 9 23 26 32 23 12 330 316 76 219 317 283 83 64 104 88 39 91 348 354 349 342 332 322 305
13 11 10 8 6 4 3 2 10 29 356 29 80 114 94 98 26 2 351 354 10 26 27 27 34 39 330 341 337 6 70 34 353 2 153 117 33 20 347 350 342 342 343 334 315
11 4 3 5 6 5 3 358 11 20 38 66 91 101 71 63 20 351 360 350 4 32 30 41 26 56 10 321 27 55 40 359 302 207 11 148 47 335 0 348 347 356 349 360 16
8 2 0 3 4 6 7 358 2 20 46 74 66 95 61 27 350 17 1 358 6 25 26 39 58 42 23 50 20 15 266 300 327 20 123 45 60 339 358 352 1 6 3 6 18
10 8 1 1 2 5 11 13 14 29 35 67 47 95 45 345 339 17 358 360 13 355 38 47 60 61 30 49 190 283 311 279 243 183 60 80 124 331 357 5 12 10 10 15 20
6 6 3 359 1 3 9 25 16 36 42 55 28 63 351 355 12 355 355 342 355 9 44 33 67 322 253 223 222 225 207 242 264 163 86 95 126 314 354 15 16 9 8 12 17
1 1 4 360 358 360 4 34 27 339 16 43 37 14 354 355 322 355 354 356 28 4 31 20 123 232 258 98 297 120 157 288 285 131 87 191 226 277 353 26 14 18 11 7 21
356 358 359 360 356 353 7 18 11 45 44 18 4 351 357 345 326 339 359 349 25 29 18 154 238 250 91 59 22 344 167 250 222 340 65 128 342 310 63 27 14 20 24 21 13
353 353 352 360 356 351 359 2 4 109 78 319 349 354 349 335 296 338 359 6 352 327 3 218 328 22 35 106 122 299 217 246 228 81 245 172 276 279 175 30 19 12 17 21 23
343 344 345 355 350 354 349 352 6 106 48 304 313 332 334 312 322 9 349 1 338 307 81 264 326 346 335 210 158 237 162 230 228 183 7 207 97 205 18 332 12 13 20 28 35
340 342 346 351 351 350 347 348 48 45 300 331 319 352 7 345 325 312 344 350 317 354 329 260 292 176 275 320 186 287 26 68 58 94 10 229 137 241 243 264 22 18 37 38 42
333 340 339 345 346 348 344 351 35 87 343 319 328 354 347 301 323 350 7 16 43 22 1 333 318 320 352 339 20 28 35 357 354 358 228 157 62 262 159 158 141 74 40 40 44
325 331 333 336 342 352 346 35 66 309 317 349 333 326 342 359 308 325 358 19 33 67 55 46 334 1 13 85 305 332 131 146 266 239 282 13 249 310 159 147 120 91 65 46 44
319 325 322 334 343 344 346 51 191 246 321 338 331 30 331 358 347 6 6 166 26 54 53 12 284 329 246 240 135 358 6 216 173 295 3 167 328 349 163 163 134 91 70 49 44
331 337 346 346 350 341 66 163 147 29 346 3 357 40 326 322 2 11 311 298 94 65 95 340 305 278 294 329 259 194 164 351 1 277 268 254 261 250 195 192 173 141 92 72 51
337 338 337 346 337 8 108 210 117 66 12 41 296 309 328 309 300 300 282 302 26 157 77 88 127 289 341 157 294 343 316 203 173 174 255 301 254 226 194 174 169 160 127 90 65
332 325 321 325 22 43 142 228 155 193 293 201 160 207 210 292 276 267 270 259 25 49 336 212 160 283 258 264 235 237 302 103 119 291 275 233 266 11 139 155 162 156 142 110 62
313 288 337 351 97 348 316 276 212 161 262 212 259 225 207 225 308 229 279 223 216 141 194 255 279 331 330 15 305 84 256 202 150 146 211 202 263 84 130 141 164 155 152 143 121
340 348 338 24 76 125 296 272 231 241 267 255 286 304 354 303 237 287 286 306 238 224 187 168 220 193 229 250 209 259 252 262 207 211 235 223 237 207 187 164 161 161 160 156 140
168 244 240 291 358 224 294 310 320 303 227 225 254 231 131 287 311 255 263 302 268 242 199 173 232 219 255 270 269 265 260 248 231 245 239 262 227 207 193 175 169 167 160 161 158
236 204 255 278 263 222 215 245 204 259 219 239 213 240 215 223 228 290 294 271 246 227 188 203 261 258 264 257 262 279 272 260 248 256 266 261 262 232 161 152 155 165 171 165 161
217 221 192 266 186 145 217 223 223 171 262 230 242 221 256 260 267 278 281 272 262 230 204 200 194 7 278 339 320 283 273 254 196 181 240 253 243 147 137 143 153 165 175 175 190